Regional Weather Roundup
Issued by NWS

Home | Current Version | Previous Version | Graphics & Text | Print | Product List | Glossary On
Versions: 1 2 3 4 5 6 7 8 9 10 11 12 13 14 15 16 17 18 19 20 21 22 23 24 25 26 27 28 29 30 31 32 33 34 35 36 37 38 39 40 41 42 43 44 45 46 47 48 49 50
000
ASUS43 KOAX 310102
RWRNE

WEATHER ROUNDUP FOR NEBRASKA
NATIONAL WEATHER SERVICE OMAHA NE
800 PM CDT SAT AUG 30 2014

NOTES: SATELLITE DATA IS BEING USED TO AUGMENT CLOUD COVER ABOVE
       12000 FEET.
       "FAIR" INDICATES FEW OR NO CLOUDS BELOW 12,000 FEET WITH NO
       SIGNIFICANT WEATHER AND/OR OBSTRUCTIONS TO VISIBILITY.

  * THESE STATIONS DO NOT REPORT WEATHER SUCH AS RAIN...SNOW OR FOG.

NEZ001>004-019>022-054>056-310200-
NEBRASKA PANHANDLE

CITY           SKY/WX    TMP DP  RH WIND       PRES   REMARKS
SCOTTSBLUFF    LGT RAIN  74  52  46 S28G44    29.83R
ALLIANCE       PTCLDY    81  44  27 S16G26    29.77S
CHADRON        TSTM      70  56  61 W23G35    29.77R
KIMBALL        CLOUDY    69  54  57 SW13G22   29.94R
SIDNEY         MOCLDY    76  50  40 W10       29.87R
$$

NEZ057>060-069>072-079>082-310200-
SOUTHWEST NEBRASKA

CITY           SKY/WX    TMP DP  RH WIND       PRES   REMARKS
NORTH PLATTE   CLEAR     74  64  71 E8        29.79F
IMPERIAL       CLEAR     81  53  37 S8        29.82S
LEXINGTON      CLEAR     79  66  64 SE10      29.82S
MCCOOK         CLEAR     83  56  39 S10       29.81F
OGALLALA       CLEAR     77  55  46 S7        29.79S
$$

NEZ005>010-023>029-035>040-094-310200-
NORTH CENTRAL NEBRASKA

CITY           SKY/WX    TMP DP  RH WIND       PRES   REMARKS
VALENTINE      CLEAR     80  63  55 SE16      29.74F
AINSWORTH      CLEAR     76  64  65 SE13      29.78F
BROKEN BOW     CLEAR     76  65  68 SE9       29.82F
O`NEILL        CLEAR     76  66  70 SE10      29.82F
ORD            CLEAR     77  66  68 SE8       29.81F
THEDFORD       CLEAR     80  65  60 SE14      29.80S
$$

NEZ041-046>049-061>064-073>077-083>087-310200-
SOUTH CENTRAL NEBRASKA

CITY           SKY/WX    TMP DP  RH WIND       PRES   REMARKS
GRAND ISLAND   CLEAR     77  66  68 SE8       29.85F
AURORA         CLEAR     74  69  82 SE5       29.86S
HASTINGS       CLEAR     78  64  61 SE12      29.85S
HEBRON         CLEAR     76  66  71 SE5       29.85S
HOLDREGE       CLEAR     76  65  67 CALM      29.83S
KEARNEY *      CLEAR     75  66  73 E9        29.84S
$$

NEZ011>018-030>034-042>045-310200-
NORTHEAST NEBRASKA

CITY           SKY/WX    TMP DP  RH WIND       PRES   REMARKS
NORFOLK        CLEAR     74  62  66 SE7       29.85S
ALBION         CLEAR     74  64  73 SE6       29.85S
BLAIR          CLEAR     74  67  78 E6        29.87S
FREMONT        CLEAR     76  62  62 E5        29.86S
TEKAMAH        CLEAR     74  66  76 SE6       29.86S
WAYNE          CLEAR     70  66  87 SE6       29.86S
$$

NEZ050>053-065>068-078-088>093-310200-
SOUTHEAST NEBRASKA

CITY           SKY/WX    TMP DP  RH WIND       PRES   REMARKS
LINCOLN        CLEAR     80  64  58 SE7       29.86S
OMAHA EPPLEY   CLEAR     77  64  64 SE7       29.87R
BEATRICE       CLEAR     80  67  63 SE5       29.86S
FALLS CITY     CLEAR     77  69  76 SE6       29.87R
NEBRASKA CITY  CLEAR     77  64  64 SE5       29.87S
PLATTSMOUTH    CLEAR     75  63  65 E3        29.87S
$$

NEZ044-045-051>053-067-310200-
OMAHA AREA

CITY           SKY/WX    TMP DP  RH WIND       PRES   REMARKS
OMAHA EPPLEY   CLEAR     77  64  64 SE7       29.87R
BLAIR          CLEAR     74  67  78 E6        29.87S
FREMONT        CLEAR     76  62  62 E5        29.86S
MILLARD        CLEAR     76  65  68 CALM      29.86S
OFFUTT AFB     CLEAR     75  69  80 E5        29.87R
PLATTSMOUTH    CLEAR     75  63  65 E3        29.87S
WAHOO          FAIR      74  66  77 SE5       29.86S
$$


USA.gov is the U.S. government's official web portal to all federal, state and local government web resources and services.